Location: Cactus School
(34.5700°N, 118.0931°W)
Time: 07:22:51
(UTC-07:00)

A-11 Canister half - Pass Details

Date: 02 May 2024
Orbit: 1525 x 1683 km, 47.3° (Epoch: 25 May)

Event Time Altitude Azimuth Distance (km) Brightness Sun altitude
Exits shadow 03:13:20 53° 241° (WSW) 1,919 9.0 -29.3°
Maximum altitude 03:16:12 85° 324° (NW) 1,638 9.0 -28.9°
Drops below altitude 10° 03:26:18 10° 54° (NE) 3,920 12.1 -27.5°
Sets 03:29:29 0° 55° (NE) 4,922 12.9 -27.0°
